TimeCDT,TemperatureF,Dew PointF,Humidity,Sea Level PressureIn,VisibilityMPH,Wind Direction,Wind SpeedMPH,Gust SpeedMPH,PrecipitationIn,Events,Conditions,WindDirDegrees,DateUTC
12:00 AM,77.0,71.6,83,30.08,10.0,SE,11.5,18.4,N/A,,Mostly Cloudy,130,2012-10-12 05:00:00
12:26 AM,77.0,71.6,83,30.08,10.0,SE,9.2,-,N/A,,Scattered Clouds,130,2012-10-12 05:26:00
12:53 AM,77.0,72.0,84,30.06,10.0,SE,8.1,-,N/A,,Mostly Cloudy,130,2012-10-12 05:53:00
1:53 AM,78.1,72.0,81,30.06,10.0,SE,13.8,18.4,N/A,,Overcast,140,2012-10-12 06:53:00
2:53 AM,77.0,72.0,84,30.06,10.0,SE,12.7,-,N/A,,Overcast,130,2012-10-12 07:53:00
3:27 AM,77.0,71.6,83,30.08,10.0,SE,10.4,-,N/A,,Overcast,130,2012-10-12 08:27:00
3:53 AM,77.0,72.0,84,30.05,10.0,SE,10.4,-,N/A,,Overcast,130,2012-10-12 08:53:00
4:53 AM,75.9,72.0,87,30.05,10.0,ESE,9.2,-,N/A,,Mostly Cloudy,120,2012-10-12 09:53:00
5:53 AM,75.9,72.0,87,30.06,10.0,ESE,8.1,-,N/A,,Mostly Cloudy,120,2012-10-12 10:53:00
6:53 AM,75.9,72.0,87,30.07,10.0,ESE,6.9,-,N/A,,Mostly Cloudy,120,2012-10-12 11:53:00
7:53 AM,75.9,72.0,87,30.08,10.0,ESE,9.2,-,N/A,,Overcast,110,2012-10-12 12:53:00
8:53 AM,75.9,72.0,87,30.10,10.0,ESE,9.2,-,N/A,,Overcast,120,2012-10-12 13:53:00
9:18 AM,77.0,73.4,89,30.13,10.0,ESE,11.5,-,N/A,,Overcast,120,2012-10-12 14:18:00
9:46 AM,78.8,73.4,83,30.13,10.0,ESE,10.4,-,N/A,,Overcast,120,2012-10-12 14:46:00
9:53 AM,78.1,72.0,81,30.11,10.0,SE,9.2,-,N/A,,Overcast,140,2012-10-12 14:53:00
10:53 AM,80.6,71.6,74,30.14,10.0,SE,8.1,-,N/A,,Overcast,140,2012-10-12 15:53:00
11:10 AM,80.6,71.6,74,30.14,10.0,SSE,9.2,-,N/A,,Overcast,150,2012-10-12 16:10:00
11:53 AM,84.2,71.6,66,30.13,10.0,SE,10.4,16.1,N/A,,Overcast,140,2012-10-12 16:53:00
12:53 PM,88.0,69.1,53,30.08,10.0,SSE,9.2,19.6,N/A,,Mostly Cloudy,150,2012-10-12 17:53:00
1:53 PM,89.1,68.0,50,30.05,10.0,Variable,6.9,19.6,N/A,,Scattered Clouds,0,2012-10-12 18:53:00
2:53 PM,91.4,66.2,43,30.03,10.0,SE,13.8,20.7,N/A,,Scattered Clouds,140,2012-10-12 19:53:00
3:53 PM,93.0,68.0,44,29.99,10.0,ESE,11.5,-,N/A,,Scattered Clouds,110,2012-10-12 20:53:00
4:53 PM,91.4,66.2,43,30.00,10.0,SSE,11.5,16.1,N/A,,Mostly Cloudy,150,2012-10-12 21:53:00
5:53 PM,89.1,71.1,55,29.97,10.0,ESE,16.1,23.0,N/A,,Scattered Clouds,110,2012-10-12 22:53:00
6:53 PM,87.1,71.1,59,29.97,10.0,ESE,15.0,-,N/A,,Clear,110,2012-10-12 23:53:00
7:53 PM,84.0,72.0,67,29.99,10.0,ESE,17.3,24.2,N/A,,Partly Cloudy,110,2012-10-13 00:53:00
8:53 PM,82.4,71.6,70,30.03,10.0,ESE,16.1,24.2,N/A,,Partly Cloudy,120,2012-10-13 01:53:00
9:53 PM,80.1,72.0,76,30.03,10.0,SE,12.7,20.7,N/A,,Clear,130,2012-10-13 02:53:00
10:39 PM,80.6,73.4,79,30.06,10.0,SE,18.4,25.3,N/A,,Mostly Cloudy,130,2012-10-13 03:39:00
10:53 PM,80.1,73.0,79,30.04,10.0,SE,13.8,23.0,N/A,,Mostly Cloudy,130,2012-10-13 03:53:00
11:53 PM,80.1,73.0,79,30.05,10.0,SE,16.1,20.7,N/A,,Overcast,130,2012-10-13 04:53:00